| time (UTC) | temp F | wind direction | speed MPH | gust MPH | rain 1hr in | rain 24hr in | rain mn in | humidity % | barometer mb |
| 20260504130133 | 50 | 212 | 3.0 | 7.0 | 0.00 | 0.00 | 0.00 | 67 | 1017.5 |
| 20260504120108 | 38 | 44 | 1.0 | 3.0 | 0.00 | 0.00 | 0.00 | 86 | 1018.1 |
| 20260504110318 | 34 | 65 | 1.0 | 2.0 | 0.00 | 0.00 | 0.00 | 85 | 1016.1 |
| 20260504100103 | 32 | 146 | 0.0 | 0.0 | 0.00 | 0.00 | 0.00 | 84 | 1016.3 |
| 20260504081728 | 33 | 146 | 0.0 | 0.0 | 0.00 | 0.00 | 0.00 | 83 | 1016.6 |
| 20260504081603 | 33 | 146 | 0.0 | 0.0 | 0.00 | 0.00 | 0.00 | 83 | 1017.7 |
| 20260504081217 | 33 | 146 | 0.0 | 0.0 | 0.00 | 0.00 | 0.00 | 83 | 1016.4 |
| 20260504080706 | 33 | 146 | 0.0 | 0.0 | 0.00 | 0.00 | 0.00 | 83 | 1016.1 |
| 20260504080156 | 33 | 146 | 0.0 | 0.0 | 0.00 | 0.00 | 0.00 | 83 | 1016.0 |
| 20260504050702 | 36 | 146 | 0.0 | 0.0 | 0.00 | 0.00 | 0.00 | 78 | 1016.8 |
| 20260504050152 | 36 | 146 | 0.0 | 0.0 | 0.00 | 0.00 | 0.00 | 78 | 1016.9 |
| 20260504045647 | 36 | 146 | 0.0 | 0.0 | 0.00 | 0.00 | 0.00 | 78 | 1016.9 |
| 20260504045409 | 36 | 146 | 0.0 | 0.0 | 0.00 | 0.00 | 0.00 | 78 | 1016.9 |
| 20260504044633 | 36 | 146 | 0.0 | 0.0 | 0.00 | 0.00 | 0.00 | 78 | 1016.9 |
| 20260504044626 | 36 | 146 | 0.0 | 0.0 | 0.00 | 0.00 | 0.00 | 78 | 1016.9 |
| 20260504044506 | 36 | 146 | 0.0 | 0.0 | 0.00 | 0.00 | 0.00 | 78 | 1018.1 |
| 20260504043610 | 36 | 146 | 0.0 | 0.0 | 0.00 | 0.00 | 0.00 | 77 | 1016.8 |
| 20260504043108 | 36 | 146 | 0.0 | 0.0 | 0.00 | 0.00 | 0.00 | 77 | 1016.8 |
| 20260504043046 | 36 | 146 | 0.0 | 0.0 | 0.00 | 0.00 | 0.00 | 77 | 1017.9 |
| 20260504042557 | 37 | 146 | 0.0 | 0.0 | 0.00 | 0.00 | 0.00 | 76 | 1016.8 |
| 20260504042317 | 37 | 146 | 0.0 | 0.0 | 0.00 | 0.00 | 0.00 | 76 | 1016.8 |
| 20260504041533 | 37 | 146 | 0.0 | 0.0 | 0.00 | 0.00 | 0.00 | 76 | 1016.7 |
| 20260504041511 | 37 | 146 | 0.0 | 0.0 | 0.00 | 0.00 | 0.00 | 76 | 1017.8 |
| 20260504041029 | 37 | 146 | 0.0 | 0.0 | 0.00 | 0.00 | 0.00 | 76 | 1016.9 |
| 20260504040750 | 37 | 146 | 0.0 | 0.0 | 0.00 | 0.00 | 0.00 | 75 | 1016.9 |
| 20260504040049 | 37 | 146 | 0.0 | 0.0 | 0.00 | 0.00 | 0.00 | 75 | 1017.9 |
| 20260504040010 | 37 | 146 | 0.0 | 0.0 | 0.00 | 0.00 | 0.00 | 75 | 1016.8 |
| 20260504035501 | 37 | 146 | 0.0 | 0.0 | 0.00 | 0.00 | 0.00 | 75 | 1016.8 |
| 20260504034946 | 38 | 146 | 0.0 | 0.0 | 0.00 | 0.00 | 0.00 | 75 | 1016.8 |
| 20260504034528 | 38 | 146 | 0.0 | 0.0 | 0.00 | 0.00 | 0.00 | 74 | 1017.8 |
| 20260504034437 | 38 | 146 | 0.0 | 0.0 | 0.00 | 0.00 | 0.00 | 74 | 1016.8 |
| 20260504033928 | 38 | 146 | 0.0 | 0.0 | 0.00 | 0.00 | 0.00 | 74 | 1016.6 |
| 20260504033419 | 38 | 146 | 0.0 | 0.0 | 0.00 | 0.00 | 0.00 | 74 | 1016.7 |
| 20260504033059 | 38 | 146 | 0.0 | 0.0 | 0.00 | 0.00 | 0.00 | 73 | 1017.8 |
| 20260504032918 | 38 | 146 | 0.0 | 0.0 | 0.00 | 0.00 | 0.00 | 73 | 1016.7 |
| 20260504032408 | 38 | 146 | 0.0 | 0.0 | 0.00 | 0.00 | 0.00 | 73 | 1016.7 |
| 20260504031854 | 38 | 146 | 0.0 | 0.0 | 0.00 | 0.00 | 0.00 | 72 | 1016.7 |
| 20260504031617 | 39 | 146 | 0.0 | 0.0 | 0.00 | 0.00 | 0.00 | 71 | 1016.7 |
| 20260504031526 | 38 | 146 | 0.0 | 0.0 | 0.00 | 0.00 | 0.00 | 71 | 1017.8 |
| 20260504030834 | 39 | 146 | 0.0 | 0.0 | 0.00 | 0.00 | 0.00 | 71 | 1016.7 |
| 20260504030556 | 39 | 146 | 0.0 | 0.0 | 0.00 | 0.00 | 0.00 | 71 | 1016.8 |
| 20260504030058 | 39 | 146 | 0.0 | 0.0 | 0.00 | 0.00 | 0.00 | 71 | 1017.9 |
| 20260504025816 | 39 | 146 | 0.0 | 0.0 | 0.00 | 0.00 | 0.00 | 70 | 1016.8 |
| 20260504025304 | 40 | 146 | 0.0 | 0.0 | 0.00 | 0.00 | 0.00 | 70 | 1016.9 |
| 20260504024750 | 40 | 146 | 0.0 | 0.0 | 0.00 | 0.00 | 0.00 | 69 | 1016.7 |
| 20260504024524 | 40 | 146 | 0.0 | 0.0 | 0.00 | 0.00 | 0.00 | 69 | 1017.7 |
| 20260504024240 | 40 | 146 | 0.0 | 0.0 | 0.00 | 0.00 | 0.00 | 69 | 1016.7 |
| 20260504023723 | 40 | 146 | 0.0 | 0.0 | 0.00 | 0.00 | 0.00 | 68 | 1016.6 |
| 20260504023212 | 41 | 146 | 0.0 | 0.0 | 0.00 | 0.00 | 0.00 | 68 | 1016.6 |
| 20260504023049 | 41 | 146 | 0.0 | 0.0 | 0.00 | 0.00 | 0.00 | 68 | 1017.6 |
| 20260504022934 | 41 | 146 | 0.0 | 0.0 | 0.00 | 0.00 | 0.00 | 67 | 1016.5 |
| 20260504022152 | 41 | 146 | 0.0 | 0.0 | 0.00 | 0.00 | 0.00 | 66 | 1016.5 |
| 20260504021639 | 41 | 146 | 0.0 | 0.0 | 0.00 | 0.00 | 0.00 | 66 | 1016.6 |
| 20260504021513 | 41 | 146 | 0.0 | 0.0 | 0.00 | 0.00 | 0.00 | 66 | 1017.5 |
| 20260504021128 | 42 | 146 | 0.0 | 0.0 | 0.00 | 0.00 | 0.00 | 65 | 1016.5 |
| 20260504020611 | 42 | 146 | 0.0 | 0.0 | 0.00 | 0.00 | 0.00 | 64 | 1016.4 |
| 20260504020100 | 43 | 146 | 0.0 | 0.0 | 0.00 | 0.00 | 0.00 | 63 | 1016.5 |
| 20260504020040 | 42 | 146 | 0.0 | 0.0 | 0.00 | 0.00 | 0.00 | 63 | 1017.4 |
| 20260504015820 | 43 | 146 | 0.0 | 0.0 | 0.00 | 0.00 | 0.00 | 62 | 1016.4 |
| 20260504015042 | 43 | 146 | 0.0 | 0.0 | 0.00 | 0.00 | 0.00 | 62 | 1016.4 |
| 20260504014526 | 44 | 146 | 0.0 | 0.0 | 0.00 | 0.00 | 0.00 | 61 | 1016.4 |
| 20260504014510 | 43 | 146 | 0.0 | 0.0 | 0.00 | 0.00 | 0.00 | 61 | 1017.3 |
| 20260504014247 | 44 | 146 | 0.0 | 0.0 | 0.00 | 0.00 | 0.00 | 60 | 1016.3 |
| 20260504013506 | 44 | 146 | 0.0 | 1.0 | 0.00 | 0.00 | 0.00 | 59 | 1016.2 |
| 20260504013041 | 45 | 146 | 0.0 | 1.0 | 0.00 | 0.00 | 0.00 | 59 | 1017.1 |
| 20260504012959 | 45 | 146 | 0.0 | 1.0 | 0.00 | 0.00 | 0.00 | 58 | 1016.2 |
| 20260504012458 | 45 | 146 | 0.0 | 2.0 | 0.00 | 0.00 | 0.00 | 57 | 1016.1 |
| 20260504011949 | 46 | 146 | 1.0 | 2.0 | 0.00 | 0.00 | 0.00 | 56 | 1016.2 |
| 20260504011514 | 46 | 146 | 1.0 | 2.0 | 0.00 | 0.00 | 0.00 | 56 | 1017.1 |
| 20260504011434 | 46 | 146 | 0.0 | 2.0 | 0.00 | 0.00 | 0.00 | 56 | 1016.2 |
| 20260504011157 | 46 | 220 | 0.0 | 1.0 | 0.00 | 0.00 | 0.00 | 56 | 1016.2 |
| 20260504010415 | 47 | 220 | 0.0 | 1.0 | 0.00 | 0.00 | 0.00 | 55 | 1016.1 |
| 20260504010101 | 47 | 220 | 0.0 | 1.0 | 0.00 | 0.00 | 0.00 | 53 | 1017.0 |
| 20260504005915 | 47 | 220 | 0.0 | 1.0 | 0.00 | 0.00 | 0.00 | 53 | 1016.0 |
| 20260504005405 | 48 | 220 | 0.0 | 0.0 | 0.00 | 0.00 | 0.00 | 54 | 1016.0 |
| 20260504004854 | 49 | 220 | 0.0 | 0.0 | 0.00 | 0.00 | 0.00 | 49 | 1016.0 |
| 20260504004528 | 50 | 220 | 0.0 | 0.0 | 0.00 | 0.00 | 0.00 | 47 | 1016.7 |
| 20260504004341 | 50 | 220 | 0.0 | 1.0 | 0.00 | 0.00 | 0.00 | 46 | 1015.8 |
| 20260504003829 | 51 | 220 | 0.0 | 1.0 | 0.00 | 0.00 | 0.00 | 46 | 1015.8 |
| 20260504003318 | 52 | 220 | 0.0 | 2.0 | 0.00 | 0.00 | 0.00 | 45 | 1015.9 |
| 20260504003053 | 52 | 220 | 0.0 | 2.0 | 0.00 | 0.00 | 0.00 | 44 | 1016.8 |
| 20260504002808 | 53 | 220 | 1.0 | 3.0 | 0.00 | 0.00 | 0.00 | 42 | 1015.8 |
| 20260504002250 | 53 | 221 | 1.0 | 4.0 | 0.00 | 0.00 | 0.00 | 40 | 1015.8 |
| 20260504001741 | 54 | 232 | 2.0 | 9.0 | 0.00 | 0.00 | 0.00 | 37 | 1015.7 |
| 20260504001514 | 54 | 232 | 1.0 | 8.0 | 0.00 | 0.00 | 0.00 | 37 | 1016.7 |
| 20260504001459 | 54 | 220 | 3.0 | 9.0 | 0.00 | 0.00 | 0.00 | 35 | 1015.7 |
| 20260504000948 | 55 | 240 | 3.0 | 8.0 | 0.00 | 0.00 | 0.00 | 35 | 1015.7 |
| 20260504000158 | 55 | 213 | 4.0 | 8.0 | 0.00 | 0.00 | 0.00 | 34 | 1015.7 |
| 20260504000033 | 55 | 210 | 2.0 | 8.0 | 0.00 | 0.00 | 0.00 | 34 | 1016.6 |
| 20260503235647 | 55 | 233 | 3.0 | 8.0 | 0.00 | 0.00 | 0.00 | 34 | 1015.7 |
| 20260503235136 | 55 | 213 | 3.0 | 6.0 | 0.00 | 0.00 | 0.00 | 34 | 1015.7 |
| 20260503234627 | 55 | 215 | 4.0 | 7.0 | 0.00 | 0.00 | 0.00 | 34 | 1015.7 |
| 20260503234502 | 55 | 232 | 3.0 | 9.0 | 0.00 | 0.00 | 0.00 | 34 | 1016.7 |
| 20260503234113 | 55 | 277 | 4.0 | 11.0 | 0.00 | 0.00 | 0.00 | 33 | 1015.8 |
| 20260503233602 | 56 | 242 | 4.0 | 11.0 | 0.00 | 0.00 | 0.00 | 33 | 1015.7 |
| 20260503233052 | 56 | 211 | 5.0 | 10.0 | 0.00 | 0.00 | 0.00 | 33 | 1015.7 |
| 20260503233029 | 56 | 173 | 4.0 | 10.0 | 0.00 | 0.00 | 0.00 | 33 | 1016.7 |
| 20260503232542 | 56 | 257 | 5.0 | 10.0 | 0.00 | 0.00 | 0.00 | 34 | 1015.7 |
| 20260503232034 | 56 | 238 | 4.0 | 10.0 | 0.00 | 0.00 | 0.00 | 32 | 1015.7 |
| 20260503231602 | 56 | 209 | 3.0 | 10.0 | 0.00 | 0.00 | 0.00 | 33 | 1016.7 |
| 20260503231522 | 56 | 221 | 5.0 | 11.0 | 0.00 | 0.00 | 0.00 | 34 | 1015.8 |
| 20260503231008 | 56 | 240 | 7.0 | 18.0 | 0.00 | 0.00 | 0.00 | 33 | 1015.8 |
| 20260503230729 | 56 | 252 | 5.0 | 18.0 | 0.00 | 0.00 | 0.00 | 32 | 1015.7 |
| 20260503230028 | 56 | 212 | 5.0 | 10.0 | 0.00 | 0.00 | 0.00 | 32 | 1016.7 |
| 20260503225949 | 56 | 238 | 4.0 | 11.0 | 0.00 | 0.00 | 0.00 | 34 | 1015.7 |
| 20260503225440 | 56 | 252 | 4.0 | 11.0 | 0.00 | 0.00 | 0.00 | 35 | 1015.8 |
| 20260503224926 | 57 | 211 | 4.0 | 11.0 | 0.00 | 0.00 | 0.00 | 33 | 1015.8 |
| 20260503224558 | 57 | 238 | 2.0 | 10.0 | 0.00 | 0.00 | 0.00 | 34 | 1016.9 |
| 20260503224417 | 57 | 263 | 4.0 | 11.0 | 0.00 | 0.00 | 0.00 | 34 | 1015.9 |
| 20260503223902 | 57 | 263 | 4.0 | 11.0 | 0.00 | 0.00 | 0.00 | 33 | 1015.9 |
| 20260503223352 | 57 | 277 | 4.0 | 11.0 | 0.00 | 0.00 | 0.00 | 32 | 1015.8 |
| 20260503223028 | 57 | 180 | 4.0 | 11.0 | 0.00 | 0.00 | 0.00 | 33 | 1016.9 |
| 20260503222846 | 57 | 169 | 4.0 | 14.0 | 0.00 | 0.00 | 0.00 | 34 | 1015.9 |
| 20260503222344 | 57 | 247 | 6.0 | 14.0 | 0.00 | 0.00 | 0.00 | 33 | 1015.9 |
| 20260503222111 | 57 | 277 | 5.0 | 13.0 | 0.00 | 0.00 | 0.00 | 32 | 1016.0 |
| 20260503221519 | 57 | 239 | 7.0 | 10.0 | 0.00 | 0.00 | 0.00 | 33 | 1017.0 |
| 20260503221338 | 58 | 258 | 3.0 | 10.0 | 0.00 | 0.00 | 0.00 | 33 | 1016.0 |
| 20260503220826 | 57 | 295 | 6.0 | 12.0 | 0.00 | 0.00 | 0.00 | 34 | 1015.9 |
| 20260503220317 | 57 | 238 | 6.0 | 12.0 | 0.00 | 0.00 | 0.00 | 33 | 1015.9 |
| 20260503220053 | 57 | 227 | 7.0 | 12.0 | 0.00 | 0.00 | 0.00 | 33 | 1017.1 |
| 20260503215810 | 58 | 229 | 5.0 | 12.0 | 0.00 | 0.00 | 0.00 | 32 | 1015.9 |
| 20260503215304 | 58 | 230 | 6.0 | 12.0 | 0.00 | 0.00 | 0.00 | 32 | 1015.9 |
| 20260503214759 | 58 | 287 | 4.0 | 14.0 | 0.00 | 0.00 | 0.00 | 33 | 1016.0 |
| 20260503214542 | 58 | 300 | 4.0 | 13.0 | 0.00 | 0.00 | 0.00 | 32 | 1017.0 |
| 20260503214524 | 58 | 168 | 3.0 | 11.0 | 0.00 | 0.00 | 0.00 | 31 | 1016.0 |
| 20260503213744 | 58 | 281 | 5.0 | 12.0 | 0.00 | 0.00 | 0.00 | 32 | 1016.0 |
| 20260503213236 | 58 | 231 | 6.0 | 15.0 | 0.00 | 0.00 | 0.00 | 32 | 1015.9 |
| 20260503213013 | 58 | 153 | 7.0 | 15.0 | 0.00 | 0.00 | 0.00 | 31 | 1017.1 |
| 20260503212733 | 58 | 236 | 5.0 | 13.0 | 0.00 | 0.00 | 0.00 | 32 | 1016.0 |
| 20260503212457 | 58 | 204 | 3.0 | 12.0 | 0.00 | 0.00 | 0.00 | 30 | 1016.0 |
| 20260503212340 | 59 | 33 | 4.0 | 10.0 | 0.00 | 0.00 | 0.00 | 32 | 1016.0 |
| 20260503211621 | 58 | 221 | 1.0 | 10.0 | 0.00 | 0.00 | 0.00 | 33 | 1017.1 |
| 20260503211213 | 58 | 254 | 5.0 | 14.0 | 0.00 | 0.00 | 0.00 | 31 | 1016.0 |
| 20260503210702 | 58 | 185 | 5.0 | 14.0 | 0.00 | 0.00 | 0.00 | 31 | 1016.1 |
| 20260503210157 | 58 | 213 | 6.0 | 13.0 | 0.00 | 0.00 | 0.00 | 31 | 1016.1 |
| 20260503210035 | 58 | 208 | 3.0 | 11.0 | 0.00 | 0.00 | 0.00 | 32 | 1017.2 |
| 20260503205652 | 58 | 231 | 6.0 | 17.0 | 0.00 | 0.00 | 0.00 | 31 | 1016.0 |
| 20260503205146 | 58 | 244 | 5.0 | 17.0 | 0.00 | 0.00 | 0.00 | 31 | 1016.0 |
| 20260503204914 | 58 | 268 | 6.0 | 15.0 | 0.00 | 0.00 | 0.00 | 31 | 1016.0 |
| 20260503204519 | 58 | 65 | 3.0 | 15.0 | 0.00 | 0.00 | 0.00 | 32 | 1017.1 |
| 20260503204408 | 58 | 188 | 6.0 | 14.0 | 0.00 | 0.00 | 0.00 | 29 | 1016.2 |
| 20260503203620 | 58 | 196 | 5.0 | 15.0 | 0.00 | 0.00 | 0.00 | 30 | 1016.3 |
| 20260503203118 | 58 | 242 | 5.0 | 15.0 | 0.00 | 0.00 | 0.00 | 35 | 1016.3 |
| 20260503203106 | 58 | 229 | 3.0 | 15.0 | 0.00 | 0.00 | 0.00 | 35 | 1017.5 |
| 20260503202614 | 58 | 292 | 6.0 | 15.0 | 0.00 | 0.00 | 0.00 | 32 | 1016.4 |
| 20260503202105 | 58 | 300 | 7.0 | 15.0 | 0.00 | 0.00 | 0.00 | 32 | 1016.6 |
| 20260503201557 | 58 | 179 | 6.0 | 14.0 | 0.00 | 0.00 | 0.00 | 34 | 1016.6 |
| 20260503201538 | 57 | 224 | 3.0 | 14.0 | 0.00 | 0.00 | 0.00 | 34 | 1017.7 |
| 20260503201050 | 58 | 243 | 4.0 | 14.0 | 0.00 | 0.00 | 0.00 | 30 | 1016.7 |
| 20260503200539 | 58 | 273 | 3.0 | 13.0 | 0.00 | 0.00 | 0.00 | 32 | 1016.7 |
| 20260503200030 | 58 | 293 | 3.0 | 13.0 | 0.00 | 0.00 | 0.00 | 32 | 1016.8 |
| 20260503200007 | 58 | 293 | 3.0 | 13.0 | 0.00 | 0.00 | 0.00 | 32 | 1018.0 |
| 20260503195519 | 57 | 208 | 4.0 | 13.0 | 0.00 | 0.00 | 0.00 | 36 | 1016.8 |
| 20260503195011 | 57 | 160 | 5.0 | 13.0 | 0.00 | 0.00 | 0.00 | 33 | 1016.9 |
| 20260503194541 | 57 | 159 | 4.0 | 20.0 | 0.00 | 0.00 | 0.00 | 33 | 1018.1 |
| 20260503194502 | 57 | 229 | 8.0 | 20.0 | 0.00 | 0.00 | 0.00 | 32 | 1017.0 |
| 20260503193952 | 56 | 207 | 6.0 | 20.0 | 0.00 | 0.00 | 0.00 | 33 | 1017.0 |
| 20260503193438 | 57 | 236 | 4.0 | 10.0 | 0.00 | 0.00 | 0.00 | 31 | 1016.9 |
| 20260503193159 | 56 | 252 | 5.0 | 12.0 | 0.00 | 0.00 | 0.00 | 32 | 1017.1 |
| 20260503193008 | 57 | 279 | 3.0 | 11.0 | 0.00 | 0.00 | 0.00 | 32 | 1018.1 |
| 20260503192418 | 57 | 291 | 3.0 | 12.0 | 0.00 | 0.00 | 0.00 | 31 | 1017.3 |
| 20260503191900 | 56 | 288 | 4.0 | 11.0 | 0.00 | 0.00 | 0.00 | 39 | 1017.1 |
| 20260503191533 | 56 | 267 | 2.0 | 12.0 | 0.00 | 0.00 | 0.00 | 36 | 1018.5 |
| 20260503191351 | 56 | 257 | 5.0 | 14.0 | 0.00 | 0.00 | 0.00 | 34 | 1017.4 |
| 20260503190839 | 56 | 263 | 5.0 | 14.0 | 0.00 | 0.00 | 0.00 | 32 | 1017.5 |
| 20260503190327 | 56 | 182 | 3.0 | 13.0 | 0.00 | 0.00 | 0.00 | 31 | 1017.5 |
| 20260503190059 | 56 | 298 | 3.0 | 10.0 | 0.00 | 0.00 | 0.00 | 32 | 1018.6 |
| 20260503185815 | 56 | 286 | 3.0 | 11.0 | 0.00 | 0.00 | 0.00 | 32 | 1017.5 |
| 20260503185306 | 56 | 342 | 5.0 | 13.0 | 0.00 | 0.00 | 0.00 | 34 | 1017.5 |
| 20260503184756 | 56 | 287 | 4.0 | 13.0 | 0.00 | 0.00 | 0.00 | 32 | 1017.7 |
| 20260503184530 | 56 | 185 | 5.0 | 13.0 | 0.00 | 0.00 | 0.00 | 34 | 1018.7 |
| 20260503184246 | 56 | 226 | 3.0 | 8.0 | 0.00 | 0.00 | 0.00 | 36 | 1017.6 |
| 20260503183736 | 55 | 281 | 4.0 | 13.0 | 0.00 | 0.00 | 0.00 | 36 | 1017.7 |
| 20260503183224 | 55 | 240 | 5.0 | 13.0 | 0.00 | 0.00 | 0.00 | 32 | 1018.0 |
| 20260503183106 | 55 | 212 | 5.0 | 12.0 | 0.00 | 0.00 | 0.00 | 32 | 1019.1 |
| 20260503182711 | 55 | 38 | 4.0 | 11.0 | 0.00 | 0.00 | 0.00 | 36 | 1017.9 |
| 20260503182202 | 55 | 186 | 3.0 | 11.0 | 0.00 | 0.00 | 0.00 | 34 | 1018.0 |
| 20260503181923 | 55 | 285 | 3.0 | 11.0 | 0.00 | 0.00 | 0.00 | 34 | 1018.0 |
| 20260503181527 | 55 | 259 | 3.0 | 11.0 | 0.00 | 0.00 | 0.00 | 37 | 1019.1 |
| 20260503181141 | 55 | 335 | 4.0 | 12.0 | 0.00 | 0.00 | 0.00 | 35 | 1018.0 |
| 20260503180629 | 54 | 85 | 4.0 | 12.0 | 0.00 | 0.00 | 0.00 | 37 | 1018.1 |
| 20260503180117 | 54 | 256 | 4.0 | 9.0 | 0.00 | 0.00 | 0.00 | 37 | 1018.0 |
| 20260503180053 | 54 | 240 | 3.0 | 10.0 | 0.00 | 0.00 | 0.00 | 40 | 1019.2 |
| 20260503175834 | 53 | 183 | 5.0 | 13.0 | 0.00 | 0.00 | 0.00 | 40 | 1018.2 |
| 20260503175054 | 53 | 238 | 3.0 | 13.0 | 0.00 | 0.00 | 0.00 | 35 | 1018.3 |
| 20260503174543 | 53 | 282 | 4.0 | 13.0 | 0.00 | 0.00 | 0.00 | 34 | 1018.2 |
| 20260503174523 | 53 | 284 | 2.0 | 13.0 | 0.00 | 0.00 | 0.00 | 34 | 1019.4 |
| 20260503174033 | 53 | 301 | 6.0 | 13.0 | 0.00 | 0.00 | 0.00 | 33 | 1018.4 |
| 20260503173523 | 53 | 163 | 5.0 | 10.0 | 0.00 | 0.00 | 0.00 | 37 | 1018.3 |
| 20260503173240 | 53 | 184 | 4.0 | 10.0 | 0.00 | 0.00 | 0.00 | 38 | 1018.5 |
| 20260503173103 | 53 | 245 | 5.0 | 10.0 | 0.00 | 0.00 | 0.00 | 37 | 1019.7 |
| 20260503172721 | 53 | 173 | 5.0 | 10.0 | 0.00 | 0.00 | 0.00 | 37 | 1018.5 |
| 20260503172212 | 52 | 241 | 5.0 | 13.0 | 0.00 | 0.00 | 0.00 | 38 | 1018.6 |
| 20260503171703 | 53 | 254 | 4.0 | 12.0 | 0.00 | 0.00 | 0.00 | 37 | 1018.8 |
| 20260503171517 | 52 | 170 | 7.0 | 13.0 | 0.00 | 0.00 | 0.00 | 34 | 1019.9 |
| 20260503170921 | 52 | 242 | 4.0 | 12.0 | 0.00 | 0.00 | 0.00 | 37 | 1018.8 |
| 20260503170643 | 53 | 227 | 3.0 | 10.0 | 0.00 | 0.00 | 0.00 | 38 | 1018.8 |
| 20260503160214 | 50 | 334 | 3.0 | 11.0 | 0.00 | 0.00 | 0.00 | 34 | 1019.6 |
| 20260503150513 | 47 | 58 | 3.0 | 9.0 | 0.00 | 0.00 | 0.00 | 38 | 1019.6 |